| time (UTC) | temp F | wind direction | speed MPH | gust MPH | rain 1hr in | rain 24hr in | rain mn in | humidity % | barometer mb |
| 20260905000417 | 88 | 246 | 1.0 | 3.0 | 0.00 | 0.00 | 0.00 | 71 | 1013.1 |
| 20260904235912 | 89 | 244 | 2.0 | 3.0 | 0.00 | 0.00 | 0.00 | 70 | 1013.3 |
| 20260904235408 | 89 | 239 | 2.0 | 3.0 | 0.00 | 0.00 | 0.00 | 69 | 1013.1 |
| 20260904234902 | 89 | 237 | 2.0 | 4.0 | 0.00 | 0.00 | 0.00 | 69 | 1013.1 |
| 20260904234356 | 90 | 242 | 3.0 | 4.0 | 0.00 | 0.00 | 0.00 | 69 | 1013.5 |
| 20260904233852 | 90 | 241 | 2.0 | 5.0 | 0.00 | 0.00 | 0.00 | 70 | 1013.2 |
| 20260904233348 | 90 | 253 | 2.0 | 5.0 | 0.00 | 0.00 | 0.00 | 70 | 1013.3 |
| 20260904232844 | 91 | 207 | 4.0 | 5.0 | 0.00 | 0.00 | 0.00 | 70 | 1013.5 |
| 20260904232341 | 91 | 203 | 3.0 | 5.0 | 0.00 | 0.00 | 0.00 | 70 | 1013.4 |
| 20260904231837 | 91 | 222 | 2.0 | 7.0 | 0.00 | 0.00 | 0.00 | 69 | 1013.4 |
| 20260904231336 | 91 | 228 | 1.0 | 5.0 | 0.00 | 0.00 | 0.00 | 69 | 1013.3 |
| 20260904230832 | 92 | 261 | 2.0 | 3.0 | 0.00 | 0.00 | 0.00 | 68 | 1013.4 |
| 20260904230330 | 92 | 248 | 2.0 | 5.0 | 0.00 | 0.00 | 0.00 | 67 | 1013.3 |
| 20260904225825 | 92 | 255 | 2.0 | 5.0 | 0.00 | 0.00 | 0.00 | 66 | 1013.5 |
| 20260904225324 | 92 | 235 | 5.0 | 8.0 | 0.00 | 0.00 | 0.00 | 67 | 1013.4 |
| 20260904224818 | 92 | 224 | 4.0 | 7.0 | 0.00 | 0.00 | 0.00 | 68 | 1013.4 |
| 20260904224314 | 92 | 273 | 3.0 | 8.0 | 0.00 | 0.00 | 0.00 | 68 | 1013.6 |
| 20260904223812 | 92 | 226 | 5.0 | 11.0 | 0.00 | 0.00 | 0.00 | 69 | 1013.4 |
| 20260904223307 | 92 | 204 | 5.0 | 9.0 | 0.00 | 0.00 | 0.00 | 67 | 1013.3 |
| 20260904222804 | 93 | 218 | 7.0 | 9.0 | 0.00 | 0.00 | 0.00 | 66 | 1013.5 |
| 20260904222259 | 92 | 273 | 1.0 | 13.0 | 0.00 | 0.00 | 0.00 | 66 | 1013.4 |
| 20260904221758 | 92 | 234 | 3.0 | 14.0 | 0.00 | 0.00 | 0.00 | 67 | 1013.2 |
| 20260904221253 | 93 | 251 | 2.0 | 5.0 | 0.00 | 0.00 | 0.00 | 66 | 1013.4 |
| 20260904220749 | 92 | 233 | 4.0 | 9.0 | 0.00 | 0.00 | 0.00 | 66 | 1013.2 |
| 20260904220247 | 92 | 227 | 2.0 | 7.0 | 0.00 | 0.00 | 0.00 | 66 | 1013.4 |
| 20260904215743 | 93 | 214 | 8.0 | 12.0 | 0.00 | 0.00 | 0.00 | 65 | 1013.3 |
| 20260904215238 | 93 | 238 | 2.0 | 8.0 | 0.00 | 0.00 | 0.00 | 66 | 1013.3 |
| 20260904214734 | 92 | 216 | 4.0 | 10.0 | 0.00 | 0.00 | 0.00 | 66 | 1013.3 |
| 20260904214229 | 93 | 208 | 4.0 | 9.0 | 0.00 | 0.00 | 0.00 | 64 | 1013.0 |
| 20260904213727 | 92 | 242 | 3.0 | 12.0 | 0.00 | 0.00 | 0.00 | 67 | 1013.2 |
| 20260904213224 | 93 | 209 | 9.0 | 13.0 | 0.00 | 0.00 | 0.00 | 65 | 1013.4 |
| 20260904212719 | 93 | 214 | 4.0 | 9.0 | 0.00 | 0.00 | 0.00 | 64 | 1013.3 |
| 20260904212214 | 94 | 203 | 11.0 | 14.0 | 0.00 | 0.00 | 0.00 | 63 | 1013.2 |
| 20260904211714 | 94 | 287 | 0.0 | 7.0 | 0.00 | 0.00 | 0.00 | 62 | 1013.3 |
| 20260904211208 | 92 | 219 | 4.0 | 12.0 | 0.00 | 0.00 | 0.00 | 64 | 1013.2 |
| 20260904210703 | 94 | 260 | 3.0 | 8.0 | 0.00 | 0.00 | 0.00 | 63 | 1013.4 |
| 20260904210158 | 93 | 234 | 2.0 | 12.0 | 0.00 | 0.00 | 0.00 | 65 | 1013.3 |
| 20260904205654 | 93 | 243 | 3.0 | 13.0 | 0.00 | 0.00 | 0.00 | 66 | 1013.7 |
| 20260904205150 | 93 | 218 | 5.0 | 9.0 | 0.00 | 0.00 | 0.00 | 65 | 1013.7 |
| 20260904204646 | 93 | 218 | 5.0 | 12.0 | 0.00 | 0.00 | 0.00 | 66 | 1013.6 |
| 20260904204142 | 92 | 158 | 6.0 | 12.0 | 0.00 | 0.00 | 0.00 | 66 | 1013.9 |
| 20260904203637 | 93 | 197 | 7.0 | 9.0 | 0.00 | 0.00 | 0.00 | 65 | 1013.7 |
| 20260904203134 | 92 | 231 | 11.0 | 11.0 | 0.00 | 0.00 | 0.00 | 64 | 1013.8 |
| 20260904202629 | 92 | 167 | 5.0 | 8.0 | 0.00 | 0.00 | 0.00 | 64 | 1013.8 |
| 20260904202125 | 93 | 213 | 7.0 | 11.0 | 0.00 | 0.00 | 0.00 | 62 | 1013.7 |
| 20260904201620 | 91 | 202 | 4.0 | 11.0 | 0.00 | 0.00 | 0.00 | 65 | 1013.9 |
| 20260904201115 | 92 | 242 | 5.0 | 14.0 | 0.00 | 0.00 | 0.00 | 63 | 1014.1 |
| 20260904200615 | 92 | 211 | 4.0 | 9.0 | 0.00 | 0.00 | 0.00 | 63 | 1014.1 |
| 20260904200110 | 92 | 187 | 5.0 | 9.0 | 0.00 | 0.00 | 0.00 | 63 | 1014.1 |
| 20260904195608 | 92 | 219 | 3.0 | 9.0 | 0.00 | 0.00 | 0.00 | 63 | 1014.1 |
| 20260904195102 | 91 | 207 | 3.0 | 9.0 | 0.00 | 0.00 | 0.00 | 66 | 1014.3 |
| 20260904194602 | 90 | 170 | 5.0 | 11.0 | 0.00 | 0.00 | 0.00 | 66 | 1014.5 |
| 20260904194057 | 91 | 219 | 4.0 | 11.0 | 0.00 | 0.00 | 0.00 | 64 | 1014.4 |
| 20260904193551 | 90 | 215 | 4.0 | 9.0 | 0.00 | 0.00 | 0.00 | 67 | 1014.4 |
| 20260904193048 | 91 | 222 | 6.0 | 10.0 | 0.00 | 0.00 | 0.00 | 66 | 1014.6 |
| 20260904192548 | 90 | 163 | 5.0 | 11.0 | 0.00 | 0.00 | 0.00 | 65 | 1014.5 |
| 20260904192043 | 90 | 171 | 4.0 | 13.0 | 0.00 | 0.00 | 0.00 | 67 | 1014.9 |
| 20260904191540 | 89 | 191 | 3.0 | 9.0 | 0.00 | 0.00 | 0.00 | 68 | 1014.9 |
| 20260904191036 | 88 | 158 | 5.0 | 12.0 | 0.00 | 0.00 | 0.00 | 69 | 1015.0 |
| 20260904190532 | 88 | 144 | 5.0 | 12.0 | 0.00 | 0.00 | 0.00 | 69 | 1015.0 |
| 20260904190028 | 88 | 154 | 4.0 | 15.0 | 0.00 | 0.00 | 0.00 | 68 | 1015.2 |
| 20260904185524 | 87 | 152 | 3.0 | 14.0 | 0.00 | 0.00 | 0.00 | 70 | 1015.1 |
| 20260904185018 | 87 | 120 | 6.0 | 12.0 | 0.00 | 0.00 | 0.00 | 70 | 1015.2 |
| 20260904184513 | 87 | 144 | 4.0 | 14.0 | 0.00 | 0.00 | 0.00 | 70 | 1015.2 |
| 20260904184008 | 87 | 116 | 10.0 | 13.0 | 0.00 | 0.00 | 0.00 | 70 | 1015.4 |
| 20260904183502 | 87 | 134 | 4.0 | 12.0 | 0.00 | 0.00 | 0.00 | 72 | 1015.6 |
| 20260904182957 | 86 | 150 | 8.0 | 13.0 | 0.00 | 0.00 | 0.00 | 73 | 1015.6 |
| 20260904182453 | 85 | 125 | 7.0 | 12.0 | 0.00 | 0.00 | 0.00 | 75 | 1015.9 |
| 20260904181947 | 86 | 117 | 6.0 | 14.0 | 0.00 | 0.00 | 0.00 | 73 | 1015.7 |
| 20260904181443 | 86 | 124 | 8.0 | 9.0 | 0.00 | 0.00 | 0.00 | 74 | 1016.1 |
| 20260904180932 | 86 | 130 | 6.0 | 10.0 | 0.00 | 0.00 | 0.00 | 75 | 1016.1 |
| 20260904180427 | 85 | 97 | 4.0 | 12.0 | 0.00 | 0.00 | 0.00 | 75 | 1016.3 |
| 20260904175926 | 84 | 353 | 6.0 | 14.0 | 0.00 | 0.00 | 0.00 | 76 | 1016.5 |
| 20260904175425 | 85 | 102 | 5.0 | 11.0 | 0.00 | 0.00 | 0.00 | 76 | 1016.4 |
| 20260904174920 | 84 | 87 | 5.0 | 17.0 | 0.00 | 0.00 | 0.00 | 77 | 1016.6 |
| 20260904174415 | 84 | 98 | 8.0 | 12.0 | 0.00 | 0.00 | 0.00 | 77 | 1016.6 |
| 20260904173912 | 84 | 72 | 6.0 | 16.0 | 0.00 | 0.00 | 0.00 | 76 | 1016.7 |
| 20260904173407 | 84 | 91 | 5.0 | 11.0 | 0.00 | 0.00 | 0.00 | 77 | 1016.8 |
| 20260904172903 | 84 | 97 | 9.0 | 15.0 | 0.00 | 0.00 | 0.00 | 77 | 1016.9 |
| 20260904172402 | 84 | 110 | 9.0 | 18.0 | 0.00 | 0.00 | 0.00 | 77 | 1016.8 |
| 20260904171857 | 84 | 72 | 7.0 | 15.0 | 0.00 | 0.00 | 0.00 | 76 | 1017.2 |
| 20260904171352 | 84 | 31 | 4.0 | 16.0 | 0.00 | 0.00 | 0.00 | 76 | 1017.2 |
| 20260904170849 | 84 | 350 | 4.0 | 11.0 | 0.00 | 0.00 | 0.00 | 76 | 1016.9 |
| 20260904170344 | 84 | 30 | 11.0 | 13.0 | 0.00 | 0.00 | 0.00 | 75 | 1017.4 |
| 20260904165838 | 85 | 17 | 2.0 | 15.0 | 0.00 | 0.00 | 0.00 | 75 | 1017.4 |
| 20260904165337 | 84 | 6 | 6.0 | 12.0 | 0.00 | 0.00 | 0.00 | 77 | 1017.2 |
| 20260904164832 | 85 | 119 | 13.0 | 20.0 | 0.00 | 0.00 | 0.00 | 76 | 1017.2 |
| 20260904164326 | 84 | 0 | 5.0 | 16.0 | 0.00 | 0.00 | 0.00 | 77 | 1017.1 |
| 20260904163823 | 85 | 40 | 5.0 | 13.0 | 0.00 | 0.00 | 0.00 | 77 | 1017.2 |
| 20260904163323 | 86 | 355 | 4.0 | 10.0 | 0.00 | 0.00 | 0.00 | 77 | 1016.9 |
| 20260904162822 | 86 | 347 | 5.0 | 9.0 | 0.00 | 0.00 | 0.00 | 76 | 1016.9 |
| 20260904162318 | 86 | 85 | 7.0 | 15.0 | 0.00 | 0.00 | 0.00 | 76 | 1016.9 |
| 20260904161814 | 86 | 71 | 5.0 | 10.0 | 0.00 | 0.00 | 0.00 | 76 | 1016.8 |
| 20260904161314 | 87 | 40 | 2.0 | 13.0 | 0.00 | 0.00 | 0.00 | 75 | 1016.6 |
| 20260904160809 | 86 | 58 | 2.0 | 13.0 | 0.00 | 0.00 | 0.00 | 76 | 1016.6 |
| 20260904160304 | 86 | 50 | 6.0 | 11.0 | 0.00 | 0.00 | 0.00 | 77 | 1016.4 |
| 20260904155758 | 86 | 40 | 5.0 | 13.0 | 0.00 | 0.00 | 0.00 | 76 | 1016.5 |
| 20260904155253 | 87 | 354 | 8.0 | 13.0 | 0.00 | 0.00 | 0.00 | 75 | 1016.3 |
| 20260904154751 | 88 | 35 | 6.0 | 8.0 | 0.00 | 0.00 | 0.00 | 73 | 1016.2 |
| 20260904154247 | 89 | 29 | 2.0 | 13.0 | 0.00 | 0.00 | 0.00 | 72 | 1016.1 |
| 20260904153742 | 89 | 50 | 4.0 | 9.0 | 0.00 | 0.00 | 0.00 | 71 | 1016.0 |
| 20260904153237 | 88 | 354 | 3.0 | 10.0 | 0.00 | 0.00 | 0.00 | 72 | 1015.9 |
| 20260904152733 | 88 | 6 | 2.0 | 8.0 | 0.00 | 0.00 | 0.00 | 72 | 1016.0 |
| 20260904152228 | 88 | 46 | 3.0 | 4.0 | 0.00 | 0.00 | 0.00 | 72 | 1015.9 |
| 20260904151723 | 87 | 348 | 2.0 | 10.0 | 0.00 | 0.00 | 0.00 | 72 | 1015.8 |
| 20260904151222 | 87 | 16 | 6.0 | 8.0 | 0.00 | 0.00 | 0.00 | 70 | 1016.0 |
| 20260904150718 | 86 | 357 | 5.0 | 6.0 | 0.00 | 0.00 | 0.00 | 71 | 1015.8 |
| 20260904150213 | 86 | 50 | 2.0 | 9.0 | 0.00 | 0.00 | 0.00 | 73 | 1016.0 |
| 20260904145711 | 87 | 349 | 2.0 | 7.0 | 0.00 | 0.00 | 0.00 | 73 | 1016.1 |
| 20260904145207 | 87 | 319 | 2.0 | 5.0 | 0.00 | 0.00 | 0.00 | 72 | 1015.7 |
| 20260904144702 | 87 | 323 | 2.0 | 6.0 | 0.00 | 0.00 | 0.00 | 73 | 1015.7 |
| 20260904144158 | 87 | 322 | 0.0 | 4.0 | 0.00 | 0.00 | 0.00 | 73 | 1015.8 |
| 20260904143653 | 87 | 307 | 3.0 | 6.0 | 0.00 | 0.00 | 0.00 | 71 | 1015.7 |
| 20260904143150 | 87 | 293 | 1.0 | 5.0 | 0.00 | 0.00 | 0.00 | 72 | 1015.7 |
| 20260904142646 | 86 | 335 | 5.0 | 7.0 | 0.00 | 0.00 | 0.00 | 73 | 1015.8 |
| 20260904142141 | 86 | 279 | 2.0 | 7.0 | 0.00 | 0.00 | 0.00 | 73 | 1015.6 |
| 20260904141635 | 86 | 265 | 3.0 | 9.0 | 0.00 | 0.00 | 0.00 | 73 | 1015.5 |
| 20260904141126 | 86 | 230 | 1.0 | 6.0 | 0.00 | 0.00 | 0.00 | 73 | 1015.7 |
| 20260904140621 | 85 | 236 | 2.0 | 5.0 | 0.00 | 0.00 | 0.00 | 74 | 1015.5 |
| 20260904140115 | 85 | 252 | 3.0 | 6.0 | 0.00 | 0.00 | 0.00 | 74 | 1015.4 |
| 20260904135614 | 86 | 269 | 3.0 | 6.0 | 0.00 | 0.00 | 0.00 | 73 | 1015.5 |
| 20260904135111 | 85 | 279 | 3.0 | 5.0 | 0.00 | 0.00 | 0.00 | 73 | 1015.6 |
| 20260904134606 | 86 | 315 | 2.0 | 3.0 | 0.00 | 0.00 | 0.00 | 73 | 1015.5 |
| 20260904134100 | 86 | 256 | 3.0 | 3.0 | 0.00 | 0.00 | 0.00 | 72 | 1015.7 |
| 20260904133555 | 85 | 288 | 2.0 | 4.0 | 0.00 | 0.00 | 0.00 | 73 | 1015.6 |
| 20260904133051 | 86 | 279 | 2.0 | 3.0 | 0.00 | 0.00 | 0.00 | 74 | 1015.5 |
| 20260904132550 | 85 | 236 | 2.0 | 3.0 | 0.00 | 0.00 | 0.00 | 75 | 1015.4 |
| 20260904132045 | 85 | 277 | 1.0 | 2.0 | 0.00 | 0.00 | 0.00 | 75 | 1015.4 |
| 20260904131545 | 86 | 153 | 1.0 | 3.0 | 0.00 | 0.00 | 0.00 | 73 | 1015.5 |
| 20260904131040 | 87 | 75 | 0.0 | 2.0 | 0.00 | 0.00 | 0.00 | 72 | 1015.1 |
| 20260904130540 | 85 | 190 | 0.0 | 3.0 | 0.00 | 0.00 | 0.00 | 73 | 1015.1 |
| 20260904130034 | 85 | 309 | 0.0 | 2.0 | 0.00 | 0.00 | 0.00 | 75 | 1014.8 |
| 20260904125531 | 83 | 240 | 3.0 | 3.0 | 0.00 | 0.00 | 0.00 | 78 | 1015.1 |
| 20260904125026 | 82 | 253 | 0.0 | 3.0 | 0.00 | 0.00 | 0.00 | 80 | 1014.8 |
| 20260904124522 | 82 | 195 | 0.0 | 3.0 | 0.00 | 0.00 | 0.00 | 80 | 1014.7 |
| 20260904124017 | 81 | 319 | 0.0 | 4.0 | 0.00 | 0.00 | 0.00 | 82 | 1014.7 |
| 20260904123516 | 80 | 229 | 1.0 | 3.0 | 0.00 | 0.00 | 0.00 | 81 | 1014.6 |
| 20260904123012 | 80 | 200 | 0.0 | 2.0 | 0.00 | 0.00 | 0.00 | 82 | 1014.5 |
| 20260904122507 | 78 | 224 | 1.0 | 3.0 | 0.00 | 0.00 | 0.00 | 85 | 1014.3 |
| 20260904122002 | 78 | 204 | 2.0 | 3.0 | 0.00 | 0.00 | 0.00 | 86 | 1014.3 |
| 20260904121458 | 77 | 206 | 3.0 | 4.0 | 0.00 | 0.00 | 0.00 | 88 | 1014.2 |
| 20260904120954 | 76 | 224 | 0.0 | 2.0 | 0.00 | 0.00 | 0.00 | 90 | 1014.2 |
| 20260904120449 | 76 | 161 | 0.0 | 2.0 | 0.00 | 0.00 | 0.00 | 90 | 1014.3 |
| 20260904115944 | 75 | 229 | 0.0 | 2.0 | 0.00 | 0.00 | 0.00 | 90 | 1014.1 |
| 20260904115439 | 75 | 219 | 1.0 | 4.0 | 0.00 | 0.00 | 0.00 | 90 | 1014.1 |
| 20260904114934 | 75 | 210 | 1.0 | 4.0 | 0.00 | 0.00 | 0.00 | 90 | 1014.0 |
| 20260904114433 | 75 | 216 | 2.0 | 4.0 | 0.00 | 0.00 | 0.00 | 90 | 1013.9 |
| 20260904113929 | 75 | 216 | 2.0 | 5.0 | 0.00 | 0.00 | 0.00 | 90 | 1013.9 |
| 20260904113428 | 75 | 198 | 3.0 | 4.0 | 0.00 | 0.00 | 0.00 | 90 | 1014.0 |
| 20260904112927 | 75 | 222 | 3.0 | 4.0 | 0.00 | 0.00 | 0.00 | 90 | 1013.9 |
| 20260904112423 | 76 | 192 | 1.0 | 2.0 | 0.00 | 0.00 | 0.00 | 90 | 1013.9 |
| 20260904111919 | 76 | 172 | 0.0 | 2.0 | 0.00 | 0.00 | 0.00 | 89 | 1013.8 |
| 20260904111414 | 76 | 228 | 0.0 | 4.0 | 0.00 | 0.00 | 0.00 | 89 | 1013.8 |
| 20260904110910 | 76 | 351 | 0.0 | 5.0 | 0.00 | 0.00 | 0.00 | 88 | 1013.7 |
| 20260904110409 | 76 | 212 | 2.0 | 4.0 | 0.00 | 0.00 | 0.00 | 88 | 1013.6 |
| 20260904105904 | 77 | 223 | 4.0 | 7.0 | 0.00 | 0.00 | 0.00 | 88 | 1013.3 |
| 20260904105359 | 77 | 208 | 4.0 | 10.0 | 0.00 | 0.00 | 0.00 | 87 | 1013.5 |
| 20260904104854 | 77 | 227 | 3.0 | 11.0 | 0.00 | 0.00 | 0.00 | 87 | 1013.5 |
| 20260904104349 | 77 | 190 | 5.0 | 10.0 | 0.00 | 0.00 | 0.00 | 87 | 1013.6 |
| 20260904103847 | 77 | 199 | 3.0 | 7.0 | 0.00 | 0.00 | 0.00 | 87 | 1013.5 |
| 20260904103347 | 77 | 217 | 10.0 | 10.0 | 0.00 | 0.00 | 0.00 | 87 | 1013.6 |
| 20260904102843 | 77 | 213 | 5.0 | 10.0 | 0.00 | 0.00 | 0.00 | 87 | 1013.3 |
| 20260904102338 | 77 | 212 | 11.0 | 14.0 | 0.00 | 0.00 | 0.00 | 87 | 1013.4 |
| 20260904101833 | 77 | 205 | 10.0 | 10.0 | 0.00 | 0.00 | 0.00 | 88 | 1013.5 |
| 20260904101330 | 77 | 213 | 7.0 | 8.0 | 0.00 | 0.00 | 0.00 | 88 | 1013.4 |
| 20260904100825 | 77 | 211 | 4.0 | 9.0 | 0.00 | 0.00 | 0.00 | 89 | 1013.3 |
| 20260904100321 | 77 | 220 | 4.0 | 9.0 | 0.00 | 0.00 | 0.00 | 89 | 1013.7 |
| 20260904095816 | 77 | 187 | 3.0 | 7.0 | 0.00 | 0.00 | 0.00 | 90 | 1013.8 |
| 20260904095311 | 76 | 207 | 4.0 | 5.0 | 0.00 | 0.00 | 0.00 | 90 | 1014.1 |
| 20260904094806 | 76 | 218 | 2.0 | 4.0 | 0.00 | 0.00 | 0.00 | 91 | 1013.9 |
| 20260904094301 | 76 | 203 | 1.0 | 3.0 | 0.00 | 0.00 | 0.00 | 91 | 1014.1 |
| 20260904093757 | 76 | 211 | 2.0 | 4.0 | 0.00 | 0.00 | 0.00 | 90 | 1013.9 |
| 20260904093257 | 77 | 198 | 1.0 | 4.0 | 0.00 | 0.00 | 0.00 | 90 | 1014.1 |
| 20260904092752 | 77 | 213 | 1.0 | 4.0 | 0.00 | 0.00 | 0.00 | 89 | 1014.0 |
| 20260904092249 | 77 | 223 | 2.0 | 4.0 | 0.00 | 0.00 | 0.00 | 89 | 1013.9 |
| 20260904091744 | 77 | 170 | 2.0 | 5.0 | 0.00 | 0.00 | 0.00 | 88 | 1014.2 |
| 20260904091239 | 78 | 186 | 2.0 | 4.0 | 0.00 | 0.00 | 0.00 | 88 | 1014.2 |
| 20260904090735 | 78 | 193 | 3.0 | 5.0 | 0.00 | 0.00 | 0.00 | 87 | 1014.1 |
| 20260904090230 | 78 | 205 | 3.0 | 6.0 | 0.00 | 0.00 | 0.00 | 87 | 1014.3 |
| 20260904085725 | 78 | 217 | 2.0 | 4.0 | 0.00 | 0.00 | 0.00 | 88 | 1014.3 |
| 20260904085220 | 77 | 228 | 0.0 | 3.0 | 0.00 | 0.00 | 0.00 | 88 | 1014.4 |
| 20260904084714 | 78 | 235 | 1.0 | 3.0 | 0.00 | 0.00 | 0.00 | 88 | 1014.2 |
| 20260904084211 | 78 | 203 | 3.0 | 5.0 | 0.00 | 0.00 | 0.00 | 87 | 1014.1 |
| 20260904083707 | 78 | 235 | 0.0 | 6.0 | 0.00 | 0.00 | 0.00 | 87 | 1014.3 |
| 20260904083203 | 78 | 212 | 2.0 | 3.0 | 0.00 | 0.00 | 0.00 | 87 | 1014.3 |
| 20260904082703 | 78 | 242 | 2.0 | 4.0 | 0.00 | 0.00 | 0.00 | 86 | 1014.3 |
| 20260904082159 | 79 | 230 | 1.0 | 4.0 | 0.00 | 0.00 | 0.00 | 86 | 1014.2 |
| 20260904081653 | 79 | 221 | 5.0 | 7.0 | 0.00 | 0.00 | 0.00 | 85 | 1013.8 |
| 20260904081149 | 79 | 220 | 3.0 | 6.0 | 0.00 | 0.00 | 0.00 | 86 | 1014.0 |
| 20260904080644 | 79 | 210 | 4.0 | 8.0 | 0.00 | 0.00 | 0.00 | 85 | 1013.5 |
| 20260904080140 | 79 | 223 | 3.0 | 8.0 | 0.00 | 0.00 | 0.00 | 85 | 1013.6 |
| 20260904075636 | 79 | 209 | 6.0 | 11.0 | 0.00 | 0.00 | 0.00 | 85 | 1013.6 |
| 20260904075131 | 79 | 205 | 5.0 | 12.0 | 0.00 | 0.00 | 0.00 | 85 | 1013.7 |
| 20260904074625 | 79 | 216 | 7.0 | 7.0 | 0.00 | 0.00 | 0.00 | 86 | 1013.5 |
| 20260904074120 | 79 | 209 | 5.0 | 9.0 | 0.00 | 0.00 | 0.00 | 87 | 1013.6 |
| 20260904073614 | 78 | 198 | 4.0 | 7.0 | 0.00 | 0.00 | 0.00 | 88 | 1013.5 |
| 20260904073111 | 78 | 202 | 5.0 | 7.0 | 0.00 | 0.00 | 0.00 | 89 | 1013.5 |
| 20260904072606 | 78 | 208 | 2.0 | 9.0 | 0.00 | 0.00 | 0.00 | 89 | 1013.6 |
| 20260904072101 | 79 | 206 | 4.0 | 8.0 | 0.00 | 0.00 | 0.00 | 88 | 1013.4 |
| 20260904071557 | 79 | 199 | 2.0 | 5.0 | 0.00 | 0.00 | 0.00 | 88 | 1013.5 |
| 20260904071052 | 79 | 186 | 9.0 | 9.0 | 0.00 | 0.00 | 0.00 | 88 | 1013.6 |
| 20260904070550 | 79 | 203 | 2.0 | 5.0 | 0.00 | 0.00 | 0.00 | 89 | 1013.7 |
| 20260904070045 | 79 | 194 | 4.0 | 7.0 | 0.00 | 0.00 | 0.00 | 88 | 1013.9 |
| 20260904065540 | 79 | 172 | 3.0 | 6.0 | 0.00 | 0.00 | 0.00 | 88 | 1013.9 |
| 20260904065037 | 79 | 178 | 1.0 | 6.0 | 0.00 | 0.00 | 0.00 | 88 | 1014.1 |
| 20260904064533 | 79 | 221 | 2.0 | 4.0 | 0.00 | 0.00 | 0.00 | 88 | 1014.1 |
| 20260904064033 | 79 | 168 | 2.0 | 3.0 | 0.00 | 0.00 | 0.00 | 88 | 1014.5 |
| 20260904063529 | 79 | 166 | 2.0 | 3.0 | 0.00 | 0.00 | 0.00 | 88 | 1014.4 |
| 20260904063024 | 80 | 212 | 3.0 | 4.0 | 0.00 | 0.00 | 0.00 | 88 | 1014.5 |
| 20260904062520 | 80 | 205 | 3.0 | 5.0 | 0.00 | 0.00 | 0.00 | 87 | 1014.8 |
| 20260904062015 | 80 | 210 | 3.0 | 4.0 | 0.00 | 0.00 | 0.00 | 87 | 1014.7 |
| 20260904061511 | 80 | 170 | 3.0 | 3.0 | 0.00 | 0.00 | 0.00 | 87 | 1014.7 |
| 20260904061008 | 80 | 212 | 2.0 | 4.0 | 0.00 | 0.00 | 0.00 | 87 | 1014.6 |
| 20260904060503 | 80 | 212 | 0.0 | 3.0 | 0.00 | 0.00 | 0.00 | 87 | 1014.4 |
| 20260904055959 | 80 | 249 | 1.0 | 3.0 | 0.00 | 0.00 | 0.00 | 87 | 1014.6 |
| 20260904055454 | 80 | 194 | 2.0 | 3.0 | 0.00 | 0.00 | 0.00 | 87 | 1014.7 |
| 20260904054949 | 80 | 213 | 0.0 | 2.0 | 0.00 | 0.00 | 0.00 | 87 | 1014.6 |
| 20260904054445 | 80 | 209 | 1.0 | 2.0 | 0.00 | 0.00 | 0.00 | 87 | 1014.9 |
| 20260904053941 | 80 | 208 | 1.0 | 3.0 | 0.00 | 0.00 | 0.00 | 86 | 1014.8 |
| 20260904053440 | 80 | 230 | 2.0 | 4.0 | 0.00 | 0.00 | 0.00 | 86 | 1014.8 |
| 20260904052936 | 80 | 217 | 0.0 | 3.0 | 0.00 | 0.00 | 0.00 | 86 | 1014.7 |
| 20260904052432 | 80 | 165 | 3.0 | 5.0 | 0.00 | 0.00 | 0.00 | 86 | 1014.7 |
| 20260904051928 | 80 | 217 | 2.0 | 4.0 | 0.00 | 0.00 | 0.00 | 86 | 1014.4 |
| 20260904051424 | 80 | 175 | 3.0 | 4.0 | 0.00 | 0.00 | 0.00 | 87 | 1014.7 |
| 20260904050918 | 80 | 218 | 0.0 | 2.0 | 0.00 | 0.00 | 0.00 | 87 | 1014.6 |
| 20260904050414 | 80 | 187 | 2.0 | 5.0 | 0.00 | 0.00 | 0.00 | 87 | 1014.3 |
| 20260904045914 | 80 | 190 | 3.0 | 4.0 | 0.00 | 0.00 | 0.00 | 87 | 1014.3 |
| 20260904045409 | 80 | 183 | 3.0 | 5.0 | 0.00 | 0.00 | 0.00 | 86 | 1014.5 |
| 20260904044909 | 81 | 163 | 1.0 | 4.0 | 0.00 | 0.00 | 0.00 | 86 | 1014.4 |
| 20260904044406 | 81 | 109 | 1.0 | 5.0 | 0.00 | 0.00 | 0.00 | 86 | 1014.5 |
| 20260904043902 | 81 | 150 | 3.0 | 4.0 | 0.00 | 0.00 | 0.00 | 86 | 1014.6 |
| 20260904043358 | 81 | 183 | 3.0 | 4.0 | 0.00 | 0.00 | 0.00 | 85 | 1014.4 |
| 20260904042853 | 81 | 140 | 2.0 | 4.0 | 0.00 | 0.00 | 0.00 | 85 | 1014.5 |
| 20260904042349 | 81 | 176 | 2.0 | 3.0 | 0.00 | 0.00 | 0.00 | 84 | 1014.5 |
| 20260904041844 | 81 | 185 | 3.0 | 4.0 | 0.00 | 0.00 | 0.00 | 84 | 1014.6 |
| 20260904041340 | 81 | 153 | 2.0 | 3.0 | 0.00 | 0.00 | 0.00 | 84 | 1014.7 |
| 20260904040836 | 81 | 183 | 3.0 | 4.0 | 0.00 | 0.00 | 0.00 | 85 | 1014.8 |
| 20260904040331 | 81 | 208 | 0.0 | 3.0 | 0.00 | 0.00 | 0.00 | 85 | 1014.7 |
| 20260904035827 | 82 | 173 | 1.0 | 3.0 | 0.00 | 0.00 | 0.00 | 84 | 1014.7 |
| 20260904035323 | 82 | 204 | 3.0 | 4.0 | 0.00 | 0.00 | 0.00 | 85 | 1014.7 |
| 20260904034821 | 82 | 198 | 1.0 | 3.0 | 0.00 | 0.00 | 0.00 | 84 | 1014.7 |
| 20260904034317 | 82 | 166 | 1.0 | 3.0 | 0.00 | 0.00 | 0.00 | 85 | 1014.8 |
| 20260904033813 | 82 | 174 | 2.0 | 3.0 | 0.00 | 0.00 | 0.00 | 84 | 1014.8 |
| 20260904033309 | 82 | 158 | 2.0 | 4.0 | 0.00 | 0.00 | 0.00 | 84 | 1014.7 |
| 20260904032805 | 83 | 181 | 3.0 | 5.0 | 0.00 | 0.00 | 0.00 | 84 | 1014.8 |
| 20260904032306 | 83 | 156 | 3.0 | 8.0 | 0.00 | 0.00 | 0.00 | 84 | 1014.8 |
| 20260904031759 | 83 | 171 | 1.0 | 6.0 | 0.00 | 0.00 | 0.00 | 84 | 1014.7 |
| 20260904031254 | 83 | 145 | 3.0 | 6.0 | 0.00 | 0.00 | 0.00 | 85 | 1014.8 |
| 20260904030750 | 83 | 187 | 1.0 | 4.0 | 0.00 | 0.00 | 0.00 | 86 | 1014.8 |
| 20260904030245 | 83 | 194 | 0.0 | 3.0 | 0.00 | 0.00 | 0.00 | 86 | 1014.8 |
| 20260904025736 | 83 | 174 | 0.0 | 3.0 | 0.00 | 0.00 | 0.00 | 86 | 1014.8 |
| 20260904025231 | 83 | 132 | 1.0 | 3.0 | 0.00 | 0.00 | 0.00 | 85 | 1014.8 |
| 20260904024726 | 83 | 149 | 1.0 | 4.0 | 0.00 | 0.00 | 0.00 | 85 | 1015.0 |
| 20260904024221 | 83 | 142 | 1.0 | 3.0 | 0.00 | 0.00 | 0.00 | 85 | 1014.9 |
| 20260904023712 | 83 | 147 | 0.0 | 4.0 | 0.00 | 0.00 | 0.00 | 84 | 1014.6 |
| 20260904023208 | 83 | 141 | 1.0 | 3.0 | 0.00 | 0.00 | 0.00 | 85 | 1014.6 |
| 20260904022707 | 84 | 141 | 2.0 | 2.0 | 0.00 | 0.00 | 0.00 | 85 | 1014.4 |
| 20260904022204 | 83 | 163 | 2.0 | 3.0 | 0.00 | 0.00 | 0.00 | 85 | 1014.5 |
| 20260904021700 | 83 | 156 | 1.0 | 2.0 | 0.00 | 0.00 | 0.00 | 85 | 1014.6 |
| 20260904021154 | 84 | 166 | 1.0 | 2.0 | 0.00 | 0.00 | 0.00 | 85 | 1014.5 |
| 20260904020651 | 84 | 127 | 2.0 | 2.0 | 0.00 | 0.00 | 0.00 | 85 | 1014.5 |
| 20260904020144 | 84 | 126 | 2.0 | 3.0 | 0.00 | 0.00 | 0.00 | 84 | 1014.5 |
| 20260904015644 | 84 | 123 | 2.0 | 3.0 | 0.00 | 0.00 | 0.00 | 84 | 1014.4 |
| 20260904015143 | 84 | 116 | 2.0 | 3.0 | 0.00 | 0.00 | 0.00 | 84 | 1014.4 |
| 20260904014642 | 85 | 140 | 1.0 | 4.0 | 0.00 | 0.00 | 0.00 | 83 | 1014.3 |
| 20260904014138 | 85 | 144 | 2.0 | 5.0 | 0.00 | 0.00 | 0.00 | 83 | 1014.3 |
| 20260904013634 | 85 | 169 | 3.0 | 4.0 | 0.00 | 0.00 | 0.00 | 83 | 1014.0 |
| 20260904013130 | 85 | 149 | 2.0 | 7.0 | 0.00 | 0.00 | 0.00 | 83 | 1014.0 |
| 20260904012626 | 85 | 136 | 2.0 | 6.0 | 0.00 | 0.00 | 0.00 | 83 | 1013.8 |
| 20260904012125 | 85 | 140 | 7.0 | 7.0 | 0.00 | 0.00 | 0.00 | 83 | 1013.7 |
| 20260904011624 | 85 | 156 | 4.0 | 7.0 | 0.00 | 0.00 | 0.00 | 83 | 1013.8 |
| 20260904011119 | 85 | 145 | 6.0 | 9.0 | 0.00 | 0.00 | 0.00 | 82 | 1013.6 |
| 20260904010615 | 86 | 161 | 5.0 | 9.0 | 0.00 | 0.00 | 0.00 | 82 | 1013.4 |
| 20260904010111 | 86 | 111 | 2.0 | 6.0 | 0.00 | 0.00 | 0.00 | 82 | 1013.4 |
| 20260904005606 | 86 | 162 | 3.0 | 5.0 | 0.00 | 0.00 | 0.00 | 82 | 1013.5 |
| 20260904005102 | 86 | 139 | 0.0 | 4.0 | 0.00 | 0.00 | 0.00 | 82 | 1013.2 |
| 20260904004557 | 86 | 152 | 2.0 | 6.0 | 0.00 | 0.00 | 0.00 | 81 | 1013.2 |
| 20260904004051 | 86 | 191 | 4.0 | 7.0 | 0.00 | 0.00 | 0.00 | 82 | 1013.4 |
| 20260904003548 | 86 | 150 | 4.0 | 6.0 | 0.00 | 0.00 | 0.00 | 81 | 1013.3 |
| 20260904003044 | 86 | 173 | 2.0 | 5.0 | 0.00 | 0.00 | 0.00 | 80 | 1013.2 |
| 20260904002539 | 87 | 149 | 4.0 | 5.0 | 0.00 | 0.00 | 0.00 | 80 | 1013.2 |
| 20260904002038 | 87 | 173 | 3.0 | 7.0 | 0.00 | 0.00 | 0.00 | 79 | 1013.3 |
| 20260904001535 | 87 | 161 | 3.0 | 6.0 | 0.00 | 0.00 | 0.00 | 79 | 1013.5 |
| 20260904001034 | 87 | 184 | 2.0 | 5.0 | 0.00 | 0.00 | 0.00 | 79 | 1013.4 |
| 20260904000533 | 88 | 177 | 3.0 | 5.0 | 0.00 | 0.00 | 0.00 | 78 | 1013.5 |